Location: *
(58.7167°N, 26.1833°E)
Time: 18:28:59
(UTC+00:00)

CZ-4C R/B - Pass Details

Date: 25 August 2019
Orbit: 465 x 636 km, 97.9° (Epoch: 17 October)

Event Time Altitude Azimuth Distance (km) Brightness Sun altitude
Exits shadow 22:21:03 52° 116° (ESE) 656 3.5 -20.7°
Maximum altitude 22:21:41 62° 69° (ENE) 588 3.4 -20.7°
Drops below altitude 10° 22:25:19 10° 349° (N) 1,714 6.9 -20.7°
Sets 22:27:22 0° 346° (NNW) 2,580 8.1 -20.6°
